Time,TemperatureF,DewpointF,PressureIn,WindDirection,WindDirectionDegrees,WindSpeedMPH,WindSpeedGustMPH,Humidity,HourlyPrecipIn,Conditions,Clouds,dailyrainin,SoftwareType,DateUTC
2014-01-06 00:02:00,45.6,-99.9,28.56,North,-999,-999.0,-999.0,-999,-99.99,,,-99.99,,2014-01-06 05:02:00,
2014-01-06 00:04:00,45.6,-99.9,28.52,North,-999,-999.0,-999.0,-999,-99.99,,,-99.99,,2014-01-06 05:04:00,
2014-01-06 00:06:00,45.4,-99.9,28.56,North,-999,-999.0,-999.0,-999,-99.99,,,-99.99,,2014-01-06 05:06:00,
2014-01-06 00:12:00,45.6,-99.9,28.52,North,-999,-999.0,-999.0,-999,-99.99,,,-99.99,,2014-01-06 05:12:00,
2014-01-06 00:18:00,45.7,-99.9,28.52,North,-999,-999.0,-999.0,-999,-99.99,,,-99.99,,2014-01-06 05:18:00,
2014-01-06 00:24:00,45.5,-99.9,28.52,North,-999,-999.0,-999.0,-999,-99.99,,,-99.99,,2014-01-06 05:24:00,
2014-01-06 00:30:00,45.5,-99.9,28.52,North,-999,-999.0,-999.0,-999,-99.99,,,-99.99,,2014-01-06 05:30:00,
2014-01-06 00:36:00,45.6,-99.9,28.52,North,-999,-999.0,-999.0,-999,-99.99,,,-99.99,,2014-01-06 05:36:00,
2014-01-06 00:42:00,45.8,-99.9,28.49,North,-999,-999.0,-999.0,-999,-99.99,,,-99.99,,2014-01-06 05:42:00,
2014-01-06 00:48:00,45.9,-99.9,28.52,North,-999,-999.0,-999.0,-999,-99.99,,,-99.99,,2014-01-06 05:48:00,
2014-01-06 00:54:00,45.9,-99.9,28.49,North,-999,-999.0,-999.0,-999,-99.99,,,-99.99,,2014-01-06 05:54:00,
2014-01-06 01:00:00,46.1,-99.9,28.46,North,-999,-999.0,-999.0,-999,-99.99,,,-99.99,,2014-01-06 06:00:00,
2014-01-06 01:06:00,46.1,-99.9,28.46,North,-999,-999.0,-999.0,-999,-99.99,,,-99.99,,2014-01-06 06:06:00,
2014-01-06 01:12:00,46.1,-99.9,28.46,North,-999,-999.0,-999.0,-999,-99.99,,,-99.99,,2014-01-06 06:12:00,
2014-01-06 01:18:00,46.1,-99.9,28.46,North,-999,-999.0,-999.0,-999,-99.99,,,-99.99,,2014-01-06 06:18:00,
2014-01-06 01:24:00,46.0,-99.9,28.46,North,-999,-999.0,-999.0,-999,-99.99,,,-99.99,,2014-01-06 06:24:00,
2014-01-06 01:30:00,45.9,-99.9,28.46,North,-999,-999.0,-999.0,-999,-99.99,,,-99.99,,2014-01-06 06:30:00,
2014-01-06 01:36:00,45.7,-99.9,28.46,North,-999,-999.0,-999.0,-999,-99.99,,,-99.99,,2014-01-06 06:36:00,
2014-01-06 01:42:00,46.2,-99.9,28.46,North,-999,-999.0,-999.0,-999,-99.99,,,-99.99,,2014-01-06 06:42:00,
2014-01-06 01:48:00,46.1,-99.9,28.43,North,-999,-999.0,-999.0,-999,-99.99,,,-99.99,,2014-01-06 06:48:00,
2014-01-06 01:54:00,45.8,-99.9,28.43,North,-999,-999.0,-999.0,-999,-99.99,,,-99.99,,2014-01-06 06:54:00,
2014-01-06 02:00:00,45.7,-99.9,28.43,North,-999,-999.0,-999.0,-999,-99.99,,,-99.99,,2014-01-06 07:00:00,
2014-01-06 02:06:00,45.8,-99.9,28.43,North,-999,-999.0,-999.0,-999,-99.99,,,-99.99,,2014-01-06 07:06:00,
2014-01-06 02:12:00,46.1,-99.9,28.43,North,-999,-999.0,-999.0,-999,-99.99,,,-99.99,,2014-01-06 07:12:00,
2014-01-06 02:18:00,46.1,-99.9,28.43,North,-999,-999.0,-999.0,-999,-99.99,,,-99.99,,2014-01-06 07:18:00,
2014-01-06 02:24:00,45.7,-99.9,28.40,North,-999,-999.0,-999.0,-999,-99.99,,,-99.99,,2014-01-06 07:24:00,
2014-01-06 02:30:00,46.5,-99.9,28.43,North,-999,-999.0,-999.0,-999,-99.99,,,-99.99,,2014-01-06 07:30:00,
2014-01-06 02:36:00,46.9,-99.9,28.43,North,-999,-999.0,-999.0,-999,-99.99,,,-99.99,,2014-01-06 07:36:00,
2014-01-06 02:42:00,47.0,-99.9,28.40,North,-999,-999.0,-999.0,-999,-99.99,,,-99.99,,2014-01-06 07:42:00,
2014-01-06 02:48:00,47.0,-99.9,28.40,North,-999,-999.0,-999.0,-999,-99.99,,,-99.99,,2014-01-06 07:48:00,
2014-01-06 02:54:00,47.2,-99.9,28.36,North,-999,-999.0,-999.0,-999,-99.99,,,-99.99,,2014-01-06 07:54:00,
2014-01-06 03:00:00,47.3,-99.9,28.36,North,-999,-999.0,-999.0,-999,-99.99,,,-99.99,,2014-01-06 08:00:00,
2014-01-06 03:06:00,47.8,-99.9,28.36,North,-999,-999.0,-999.0,-999,-99.99,,,-99.99,,2014-01-06 08:06:00,
2014-01-06 03:12:00,47.8,-99.9,28.36,North,-999,-999.0,-999.0,-999,-99.99,,,-99.99,,2014-01-06 08:12:00,
2014-01-06 03:18:00,48.0,-99.9,28.36,North,-999,-999.0,-999.0,-999,-99.99,,,-99.99,,2014-01-06 08:18:00,
2014-01-06 03:24:00,48.0,-99.9,28.36,North,-999,-999.0,-999.0,-999,-99.99,,,-99.99,,2014-01-06 08:24:00,
2014-01-06 03:30:00,48.6,-99.9,28.33,North,-999,-999.0,-999.0,-999,-99.99,,,-99.99,,2014-01-06 08:30:00,
2014-01-06 03:36:00,48.7,-99.9,28.36,North,-999,-999.0,-999.0,-999,-99.99,,,-99.99,,2014-01-06 08:36:00,
2014-01-06 03:42:00,48.2,-99.9,28.33,North,-999,-999.0,-999.0,-999,-99.99,,,-99.99,,2014-01-06 08:42:00,
2014-01-06 03:48:00,48.3,-99.9,28.33,North,-999,-999.0,-999.0,-999,-99.99,,,-99.99,,2014-01-06 08:48:00,
2014-01-06 03:54:00,48.2,-99.9,28.33,North,-999,-999.0,-999.0,-999,-99.99,,,-99.99,,2014-01-06 08:54:00,
2014-01-06 04:00:00,48.6,-99.9,28.33,North,-999,-999.0,-999.0,-999,-99.99,,,-99.99,,2014-01-06 09:00:00,
2014-01-06 04:06:00,48.8,-99.9,28.33,North,-999,-999.0,-999.0,-999,-99.99,,,-99.99,,2014-01-06 09:06:00,
2014-01-06 04:12:00,48.6,-99.9,28.30,North,-999,-999.0,-999.0,-999,-99.99,,,-99.99,,2014-01-06 09:12:00,
2014-01-06 04:18:00,48.4,-99.9,28.30,North,-999,-999.0,-999.0,-999,-99.99,,,-99.99,,2014-01-06 09:18:00,
2014-01-06 04:24:00,48.4,-99.9,28.30,North,-999,-999.0,-999.0,-999,-99.99,,,-99.99,,2014-01-06 09:24:00,
2014-01-06 04:30:00,48.4,-99.9,28.30,North,-999,-999.0,-999.0,-999,-99.99,,,-99.99,,2014-01-06 09:30:00,
2014-01-06 04:36:00,49.3,-99.9,28.30,North,-999,-999.0,-999.0,-999,-99.99,,,-99.99,,2014-01-06 09:36:00,
2014-01-06 04:42:00,49.8,-99.9,28.30,North,-999,-999.0,-999.0,-999,-99.99,,,-99.99,,2014-01-06 09:42:00,
2014-01-06 04:48:00,49.9,-99.9,28.30,North,-999,-999.0,-999.0,-999,-99.99,,,-99.99,,2014-01-06 09:48:00,
2014-01-06 04:54:00,50.0,-99.9,28.27,North,-999,-999.0,-999.0,-999,-99.99,,,-99.99,,2014-01-06 09:54:00,
2014-01-06 05:00:00,50.0,-99.9,28.27,North,-999,-999.0,-999.0,-999,-99.99,,,-99.99,,2014-01-06 10:00:00,
2014-01-06 05:06:00,50.0,-99.9,28.27,North,-999,-999.0,-999.0,-999,-99.99,,,-99.99,,2014-01-06 10:06:00,
2014-01-06 05:12:00,50.6,-99.9,28.30,North,-999,-999.0,-999.0,-999,-99.99,,,-99.99,,2014-01-06 10:12:00,
2014-01-06 05:18:00,50.7,-99.9,28.27,North,-999,-999.0,-999.0,-999,-99.99,,,-99.99,,2014-01-06 10:18:00,
2014-01-06 05:24:00,50.7,-99.9,28.27,North,-999,-999.0,-999.0,-999,-99.99,,,-99.99,,2014-01-06 10:24:00,
2014-01-06 05:30:00,51.0,-99.9,28.27,North,-999,-999.0,-999.0,-999,-99.99,,,-99.99,,2014-01-06 10:30:00,
2014-01-06 05:36:00,50.7,-99.9,28.24,North,-999,-999.0,-999.0,-999,-99.99,,,-99.99,,2014-01-06 10:36:00,
2014-01-06 05:42:00,50.8,-99.9,28.24,North,-999,-999.0,-999.0,-999,-99.99,,,-99.99,,2014-01-06 10:42:00,
2014-01-06 05:48:00,51.3,-99.9,28.24,North,-999,-999.0,-999.0,-999,-99.99,,,-99.99,,2014-01-06 10:48:00,
2014-01-06 05:54:00,51.3,-99.9,28.24,North,-999,-999.0,-999.0,-999,-99.99,,,-99.99,,2014-01-06 10:54:00,
2014-01-06 06:00:00,51.4,-99.9,28.24,North,-999,-999.0,-999.0,-999,-99.99,,,-99.99,,2014-01-06 11:00:00,
2014-01-06 06:06:00,51.4,-99.9,28.27,North,-999,-999.0,-999.0,-999,-99.99,,,-99.99,,2014-01-06 11:06:00,
2014-01-06 06:12:00,51.3,-99.9,28.24,North,-999,-999.0,-999.0,-999,-99.99,,,-99.99,,2014-01-06 11:12:00,
2014-01-06 06:18:00,51.6,-99.9,28.24,North,-999,-999.0,-999.0,-999,-99.99,,,-99.99,,2014-01-06 11:18:00,
2014-01-06 06:24:00,51.8,-99.9,28.24,North,-999,-999.0,-999.0,-999,-99.99,,,-99.99,,2014-01-06 11:24:00,
2014-01-06 06:30:00,51.7,-99.9,28.20,North,-999,-999.0,-999.0,-999,-99.99,,,-99.99,,2014-01-06 11:30:00,
2014-01-06 06:36:00,51.8,-99.9,28.24,North,-999,-999.0,-999.0,-999,-99.99,,,-99.99,,2014-01-06 11:36:00,
2014-01-06 06:42:00,51.7,-99.9,28.20,North,-999,-999.0,-999.0,-999,-99.99,,,-99.99,,2014-01-06 11:42:00,
2014-01-06 06:48:00,51.7,-99.9,28.20,North,-999,-999.0,-999.0,-999,-99.99,,,-99.99,,2014-01-06 11:48:00,
2014-01-06 06:54:00,51.9,-99.9,28.20,North,-999,-999.0,-999.0,-999,-99.99,,,-99.99,,2014-01-06 11:54:00,
2014-01-06 07:00:00,52.0,-99.9,28.17,North,-999,-999.0,-999.0,-999,-99.99,,,-99.99,,2014-01-06 12:00:00,
2014-01-06 07:06:00,52.4,-99.9,28.20,North,-999,-999.0,-999.0,-999,-99.99,,,-99.99,,2014-01-06 12:06:00,
2014-01-06 07:12:00,53.1,-99.9,28.17,North,-999,-999.0,-999.0,-999,-99.99,,,-99.99,,2014-01-06 12:12:00,
2014-01-06 07:18:00,53.3,-99.9,28.17,North,-999,-999.0,-999.0,-999,-99.99,,,-99.99,,2014-01-06 12:18:00,
2014-01-06 07:24:00,53.3,-99.9,28.17,North,-999,-999.0,-999.0,-999,-99.99,,,-99.99,,2014-01-06 12:24:00,
2014-01-06 07:30:00,53.7,-99.9,28.14,North,-999,-999.0,-999.0,-999,-99.99,,,-99.99,,2014-01-06 12:30:00,
2014-01-06 07:36:00,53.9,-99.9,28.14,North,-999,-999.0,-999.0,-999,-99.99,,,-99.99,,2014-01-06 12:36:00,
2014-01-06 07:42:00,54.3,-99.9,28.14,North,-999,-999.0,-999.0,-999,-99.99,,,-99.99,,2014-01-06 12:42:00,
2014-01-06 07:48:00,54.6,-99.9,28.14,North,-999,-999.0,-999.0,-999,-99.99,,,-99.99,,2014-01-06 12:48:00,
2014-01-06 07:54:00,54.2,-99.9,28.14,North,-999,-999.0,-999.0,-999,-99.99,,,-99.99,,2014-01-06 12:54:00,
2014-01-06 08:00:00,54.2,-99.9,28.11,North,-999,-999.0,-999.0,-999,-99.99,,,-99.99,,2014-01-06 13:00:00,
2014-01-06 08:06:00,54.1,-99.9,28.11,North,-999,-999.0,-999.0,-999,-99.99,,,-99.99,,2014-01-06 13:06:00,
2014-01-06 08:12:00,54.3,-99.9,28.11,North,-999,-999.0,-999.0,-999,-99.99,,,-99.99,,2014-01-06 13:12:00,
2014-01-06 08:18:00,54.3,-99.9,28.11,North,-999,-999.0,-999.0,-999,-99.99,,,-99.99,,2014-01-06 13:18:00,
2014-01-06 08:24:00,54.4,-99.9,28.11,North,-999,-999.0,-999.0,-999,-99.99,,,-99.99,,2014-01-06 13:24:00,
2014-01-06 08:30:00,54.3,-99.9,28.11,North,-999,-999.0,-999.0,-999,-99.99,,,-99.99,,2014-01-06 13:30:00,
2014-01-06 08:36:00,54.3,-99.9,28.11,North,-999,-999.0,-999.0,-999,-99.99,,,-99.99,,2014-01-06 13:36:00,
2014-01-06 08:42:00,53.8,-99.9,28.11,North,-999,-999.0,-999.0,-999,-99.99,,,-99.99,,2014-01-06 13:42:00,
2014-01-06 08:48:00,54.0,-99.9,28.11,North,-999,-999.0,-999.0,-999,-99.99,,,-99.99,,2014-01-06 13:48:00,
2014-01-06 08:54:00,54.1,-99.9,28.11,North,-999,-999.0,-999.0,-999,-99.99,,,-99.99,,2014-01-06 13:54:00,
2014-01-06 09:00:00,54.1,-99.9,28.11,North,-999,-999.0,-999.0,-999,-99.99,,,-99.99,,2014-01-06 14:00:00,
2014-01-06 09:06:00,54.1,-99.9,28.11,North,-999,-999.0,-999.0,-999,-99.99,,,-99.99,,2014-01-06 14:06:00,
2014-01-06 09:12:00,54.0,-99.9,28.11,North,-999,-999.0,-999.0,-999,-99.99,,,-99.99,,2014-01-06 14:12:00,
2014-01-06 09:18:00,53.4,-99.9,28.17,North,-999,-999.0,-999.0,-999,-99.99,,,-99.99,,2014-01-06 14:18:00,
2014-01-06 09:24:00,50.4,-99.9,28.17,North,-999,-999.0,-999.0,-999,-99.99,,,-99.99,,2014-01-06 14:24:00,
2014-01-06 09:30:00,47.0,-99.9,28.20,North,-999,-999.0,-999.0,-999,-99.99,,,-99.99,,2014-01-06 14:30:00,
2014-01-06 09:36:00,46.2,-99.9,28.20,North,-999,-999.0,-999.0,-999,-99.99,,,-99.99,,2014-01-06 14:36:00,
2014-01-06 09:42:00,46.2,-99.9,28.20,North,-999,-999.0,-999.0,-999,-99.99,,,-99.99,,2014-01-06 14:42:00,
2014-01-06 09:48:00,45.9,-99.9,28.20,North,-999,-999.0,-999.0,-999,-99.99,,,-99.99,,2014-01-06 14:48:00,
2014-01-06 09:54:00,45.6,-99.9,28.24,North,-999,-999.0,-999.0,-999,-99.99,,,-99.99,,2014-01-06 14:54:00,
2014-01-06 10:00:00,45.4,-99.9,28.20,North,-999,-999.0,-999.0,-999,-99.99,,,-99.99,,2014-01-06 15:00:00,
2014-01-06 10:06:00,45.2,-99.9,28.20,North,-999,-999.0,-999.0,-999,-99.99,,,-99.99,,2014-01-06 15:06:00,
2014-01-06 10:12:00,45.2,-99.9,28.20,North,-999,-999.0,-999.0,-999,-99.99,,,-99.99,,2014-01-06 15:12:00,
2014-01-06 10:18:00,44.2,-99.9,28.24,North,-999,-999.0,-999.0,-999,-99.99,,,-99.99,,2014-01-06 15:18:00,
2014-01-06 10:24:00,43.7,-99.9,28.24,North,-999,-999.0,-999.0,-999,-99.99,,,-99.99,,2014-01-06 15:24:00,
2014-01-06 10:30:00,43.6,-99.9,28.24,North,-999,-999.0,-999.0,-999,-99.99,,,-99.99,,2014-01-06 15:30:00,
2014-01-06 10:36:00,43.4,-99.9,28.24,North,-999,-999.0,-999.0,-999,-99.99,,,-99.99,,2014-01-06 15:36:00,
2014-01-06 10:42:00,43.0,-99.9,28.24,North,-999,-999.0,-999.0,-999,-99.99,,,-99.99,,2014-01-06 15:42:00,
2014-01-06 10:48:00,43.0,-99.9,28.24,North,-999,-999.0,-999.0,-999,-99.99,,,-99.99,,2014-01-06 15:48:00,
2014-01-06 10:54:00,42.8,-99.9,28.24,North,-999,-999.0,-999.0,-999,-99.99,,,-99.99,,2014-01-06 15:54:00,
2014-01-06 11:00:00,42.3,-99.9,28.20,North,-999,-999.0,-999.0,-999,-99.99,,,-99.99,,2014-01-06 16:00:00,
2014-01-06 11:06:00,42.2,-99.9,28.20,North,-999,-999.0,-999.0,-999,-99.99,,,-99.99,,2014-01-06 16:06:00,
2014-01-06 11:12:00,42.0,-99.9,28.20,North,-999,-999.0,-999.0,-999,-99.99,,,-99.99,,2014-01-06 16:12:00,
2014-01-06 11:18:00,42.1,-99.9,28.20,North,-999,-999.0,-999.0,-999,-99.99,,,-99.99,,2014-01-06 16:18:00,
2014-01-06 11:24:00,42.3,-99.9,28.20,North,-999,-999.0,-999.0,-999,-99.99,,,-99.99,,2014-01-06 16:24:00,
2014-01-06 11:30:00,42.3,-99.9,28.20,North,-999,-999.0,-999.0,-999,-99.99,,,-99.99,,2014-01-06 16:30:00,
2014-01-06 11:36:00,41.7,-99.9,28.20,North,-999,-999.0,-999.0,-999,-99.99,,,-99.99,,2014-01-06 16:36:00,
2014-01-06 11:42:00,41.6,-99.9,28.20,North,-999,-999.0,-999.0,-999,-99.99,,,-99.99,,2014-01-06 16:42:00,
2014-01-06 11:48:00,41.3,-99.9,28.20,North,-999,-999.0,-999.0,-999,-99.99,,,-99.99,,2014-01-06 16:48:00,
2014-01-06 11:54:00,40.9,-99.9,28.17,North,-999,-999.0,-999.0,-999,-99.99,,,-99.99,,2014-01-06 16:54:00,
2014-01-06 12:00:00,40.4,-99.9,28.20,North,-999,-999.0,-999.0,-999,-99.99,,,-99.99,,2014-01-06 17:00:00,
2014-01-06 12:06:00,38.6,-99.9,28.17,North,-999,-999.0,-999.0,-999,-99.99,,,-99.99,,2014-01-06 17:06:00,
2014-01-06 12:12:00,37.0,-99.9,28.20,North,-999,-999.0,-999.0,-999,-99.99,,,-99.99,,2014-01-06 17:12:00,
2014-01-06 12:18:00,36.3,-99.9,28.20,North,-999,-999.0,-999.0,-999,-99.99,,,-99.99,,2014-01-06 17:18:00,
2014-01-06 12:24:00,35.9,-99.9,28.20,North,-999,-999.0,-999.0,-999,-99.99,,,-99.99,,2014-01-06 17:24:00,
2014-01-06 12:30:00,35.5,-99.9,28.17,North,-999,-999.0,-999.0,-999,-99.99,,,-99.99,,2014-01-06 17:30:00,
2014-01-06 12:36:00,35.3,-99.9,28.20,North,-999,-999.0,-999.0,-999,-99.99,,,-99.99,,2014-01-06 17:36:00,
2014-01-06 12:42:00,34.6,-99.9,28.20,North,-999,-999.0,-999.0,-999,-99.99,,,-99.99,,2014-01-06 17:42:00,
2014-01-06 12:48:00,34.4,-99.9,28.20,North,-999,-999.0,-999.0,-999,-99.99,,,-99.99,,2014-01-06 17:48:00,
2014-01-06 12:54:00,33.4,-99.9,28.20,North,-999,-999.0,-999.0,-999,-99.99,,,-99.99,,2014-01-06 17:54:00,
2014-01-06 13:00:00,33.6,-99.9,28.20,North,-999,-999.0,-999.0,-999,-99.99,,,-99.99,,2014-01-06 18:00:00,
2014-01-06 13:06:00,33.5,-99.9,28.24,North,-999,-999.0,-999.0,-999,-99.99,,,-99.99,,2014-01-06 18:06:00,
2014-01-06 13:12:00,33.1,-99.9,28.24,North,-999,-999.0,-999.0,-999,-99.99,,,-99.99,,2014-01-06 18:12:00,
2014-01-06 13:18:00,32.7,-99.9,28.20,North,-999,-999.0,-999.0,-999,-99.99,,,-99.99,,2014-01-06 18:18:00,
2014-01-06 13:24:00,32.4,-99.9,28.24,North,-999,-999.0,-999.0,-999,-99.99,,,-99.99,,2014-01-06 18:24:00,
2014-01-06 13:30:00,32.2,-99.9,28.24,North,-999,-999.0,-999.0,-999,-99.99,,,-99.99,,2014-01-06 18:30:00,
2014-01-06 13:36:00,31.7,-99.9,28.24,North,-999,-999.0,-999.0,-999,-99.99,,,-99.99,,2014-01-06 18:36:00,
2014-01-06 13:42:00,31.5,-99.9,28.24,North,-999,-999.0,-999.0,-999,-99.99,,,-99.99,,2014-01-06 18:42:00,
2014-01-06 13:48:00,31.5,-99.9,28.24,North,-999,-999.0,-999.0,-999,-99.99,,,-99.99,,2014-01-06 18:48:00,
2014-01-06 13:54:00,31.8,-99.9,28.24,North,-999,-999.0,-999.0,-999,-99.99,,,-99.99,,2014-01-06 18:54:00,
2014-01-06 14:00:00,31.8,-99.9,28.24,North,-999,-999.0,-999.0,-999,-99.99,,,-99.99,,2014-01-06 19:00:00,
2014-01-06 14:06:00,31.7,-99.9,28.24,North,-999,-999.0,-999.0,-999,-99.99,,,-99.99,,2014-01-06 19:06:00,
2014-01-06 14:12:00,31.5,-99.9,28.27,North,-999,-999.0,-999.0,-999,-99.99,,,-99.99,,2014-01-06 19:12:00,
2014-01-06 14:18:00,31.5,-99.9,28.24,North,-999,-999.0,-999.0,-999,-99.99,,,-99.99,,2014-01-06 19:18:00,
2014-01-06 14:24:00,31.5,-99.9,28.24,North,-999,-999.0,-999.0,-999,-99.99,,,-99.99,,2014-01-06 19:24:00,
2014-01-06 14:30:00,31.3,-99.9,28.24,North,-999,-999.0,-999.0,-999,-99.99,,,-99.99,,2014-01-06 19:30:00,
2014-01-06 14:36:00,31.3,-99.9,28.24,North,-999,-999.0,-999.0,-999,-99.99,,,-99.99,,2014-01-06 19:36:00,
2014-01-06 14:42:00,31.3,-99.9,28.24,North,-999,-999.0,-999.0,-999,-99.99,,,-99.99,,2014-01-06 19:42:00,
2014-01-06 14:48:00,31.4,-99.9,28.24,North,-999,-999.0,-999.0,-999,-99.99,,,-99.99,,2014-01-06 19:48:00,
2014-01-06 14:54:00,31.1,-99.9,28.24,North,-999,-999.0,-999.0,-999,-99.99,,,-99.99,,2014-01-06 19:54:00,
2014-01-06 15:00:00,30.6,-99.9,28.27,North,-999,-999.0,-999.0,-999,-99.99,,,-99.99,,2014-01-06 20:00:00,
2014-01-06 15:06:00,30.5,-99.9,28.27,North,-999,-999.0,-999.0,-999,-99.99,,,-99.99,,2014-01-06 20:06:00,
2014-01-06 15:12:00,30.4,-99.9,28.24,North,-999,-999.0,-999.0,-999,-99.99,,,-99.99,,2014-01-06 20:12:00,
2014-01-06 15:18:00,30.1,-99.9,28.24,North,-999,-999.0,-999.0,-999,-99.99,,,-99.99,,2014-01-06 20:18:00,
2014-01-06 15:24:00,30.1,-99.9,28.27,North,-999,-999.0,-999.0,-999,-99.99,,,-99.99,,2014-01-06 20:24:00,
2014-01-06 15:30:00,30.1,-99.9,28.27,North,-999,-999.0,-999.0,-999,-99.99,,,-99.99,,2014-01-06 20:30:00,
2014-01-06 15:36:00,30.0,-99.9,28.27,North,-999,-999.0,-999.0,-999,-99.99,,,-99.99,,2014-01-06 20:36:00,
2014-01-06 15:42:00,29.9,-99.9,28.27,North,-999,-999.0,-999.0,-999,-99.99,,,-99.99,,2014-01-06 20:42:00,
2014-01-06 15:48:00,29.5,-99.9,28.27,North,-999,-999.0,-999.0,-999,-99.99,,,-99.99,,2014-01-06 20:48:00,
2014-01-06 15:54:00,29.3,-99.9,28.24,North,-999,-999.0,-999.0,-999,-99.99,,,-99.99,,2014-01-06 20:54:00,
2014-01-06 16:00:00,29.3,-99.9,28.27,North,-999,-999.0,-999.0,-999,-99.99,,,-99.99,,2014-01-06 21:00:00,
2014-01-06 16:06:00,29.1,-99.9,28.27,North,-999,-999.0,-999.0,-999,-99.99,,,-99.99,,2014-01-06 21:06:00,
2014-01-06 16:12:00,29.2,-99.9,28.27,North,-999,-999.0,-999.0,-999,-99.99,,,-99.99,,2014-01-06 21:12:00,
2014-01-06 16:18:00,29.2,-99.9,28.27,North,-999,-999.0,-999.0,-999,-99.99,,,-99.99,,2014-01-06 21:18:00,
2014-01-06 16:24:00,28.9,-99.9,28.27,North,-999,-999.0,-999.0,-999,-99.99,,,-99.99,,2014-01-06 21:24:00,
2014-01-06 16:30:00,28.4,-99.9,28.30,North,-999,-999.0,-999.0,-999,-99.99,,,-99.99,,2014-01-06 21:30:00,
2014-01-06 16:36:00,28.1,-99.9,28.30,North,-999,-999.0,-999.0,-999,-99.99,,,-99.99,,2014-01-06 21:36:00,
2014-01-06 16:42:00,27.9,-99.9,28.27,North,-999,-999.0,-999.0,-999,-99.99,,,-99.99,,2014-01-06 21:42:00,
2014-01-06 16:48:00,27.9,-99.9,28.27,North,-999,-999.0,-999.0,-999,-99.99,,,-99.99,,2014-01-06 21:48:00,
2014-01-06 16:54:00,27.9,-99.9,28.27,North,-999,-999.0,-999.0,-999,-99.99,,,-99.99,,2014-01-06 21:54:00,
2014-01-06 17:00:00,27.7,-99.9,28.27,North,-999,-999.0,-999.0,-999,-99.99,,,-99.99,,2014-01-06 22:00:00,
2014-01-06 17:06:00,27.5,-99.9,28.27,North,-999,-999.0,-999.0,-999,-99.99,,,-99.99,,2014-01-06 22:06:00,
2014-01-06 17:12:00,27.6,-99.9,28.27,North,-999,-999.0,-999.0,-999,-99.99,,,-99.99,,2014-01-06 22:12:00,
2014-01-06 17:18:00,27.4,-99.9,28.27,North,-999,-999.0,-999.0,-999,-99.99,,,-99.99,,2014-01-06 22:18:00,
2014-01-06 17:24:00,27.4,-99.9,28.30,North,-999,-999.0,-999.0,-999,-99.99,,,-99.99,,2014-01-06 22:24:00,
2014-01-06 17:30:00,27.4,-99.9,28.30,North,-999,-999.0,-999.0,-999,-99.99,,,-99.99,,2014-01-06 22:30:00,
2014-01-06 17:36:00,27.5,-99.9,28.27,North,-999,-999.0,-999.0,-999,-99.99,,,-99.99,,2014-01-06 22:36:00,
2014-01-06 17:42:00,27.3,-99.9,28.30,North,-999,-999.0,-999.0,-999,-99.99,,,-99.99,,2014-01-06 22:42:00,
2014-01-06 17:48:00,27.4,-99.9,28.27,North,-999,-999.0,-999.0,-999,-99.99,,,-99.99,,2014-01-06 22:48:00,
2014-01-06 17:54:00,27.5,-99.9,28.27,North,-999,-999.0,-999.0,-999,-99.99,,,-99.99,,2014-01-06 22:54:00,
2014-01-06 18:00:00,27.2,-99.9,28.27,North,-999,-999.0,-999.0,-999,-99.99,,,-99.99,,2014-01-06 23:00:00,
2014-01-06 18:06:00,27.2,-99.9,28.27,North,-999,-999.0,-999.0,-999,-99.99,,,-99.99,,2014-01-06 23:06:00,
2014-01-06 18:12:00,27.0,-99.9,28.30,North,-999,-999.0,-999.0,-999,-99.99,,,-99.99,,2014-01-06 23:12:00,
2014-01-06 18:18:00,27.1,-99.9,28.27,North,-999,-999.0,-999.0,-999,-99.99,,,-99.99,,2014-01-06 23:18:00,
2014-01-06 18:24:00,26.9,-99.9,28.30,North,-999,-999.0,-999.0,-999,-99.99,,,-99.99,,2014-01-06 23:24:00,
2014-01-06 18:30:00,26.7,-99.9,28.30,North,-999,-999.0,-999.0,-999,-99.99,,,-99.99,,2014-01-06 23:30:00,
2014-01-06 18:36:00,26.8,-99.9,28.27,North,-999,-999.0,-999.0,-999,-99.99,,,-99.99,,2014-01-06 23:36:00,
2014-01-06 18:42:00,26.7,-99.9,28.30,North,-999,-999.0,-999.0,-999,-99.99,,,-99.99,,2014-01-06 23:42:00,
2014-01-06 18:48:00,26.5,-99.9,28.30,North,-999,-999.0,-999.0,-999,-99.99,,,-99.99,,2014-01-06 23:48:00,
2014-01-06 18:54:00,26.4,-99.9,28.30,North,-999,-999.0,-999.0,-999,-99.99,,,-99.99,,2014-01-06 23:54:00,
2014-01-06 19:00:00,26.4,-99.9,28.30,North,-999,-999.0,-999.0,-999,-99.99,,,-99.99,,2014-01-07 00:00:00,
2014-01-06 19:06:00,26.3,-99.9,28.30,North,-999,-999.0,-999.0,-999,-99.99,,,-99.99,,2014-01-07 00:06:00,
2014-01-06 19:12:00,26.3,-99.9,28.30,North,-999,-999.0,-999.0,-999,-99.99,,,-99.99,,2014-01-07 00:12:00,
2014-01-06 19:18:00,26.2,-99.9,28.30,North,-999,-999.0,-999.0,-999,-99.99,,,-99.99,,2014-01-07 00:18:00,
2014-01-06 19:24:00,25.9,-99.9,28.30,North,-999,-999.0,-999.0,-999,-99.99,,,-99.99,,2014-01-07 00:24:00,
2014-01-06 19:30:00,25.7,-99.9,28.30,North,-999,-999.0,-999.0,-999,-99.99,,,-99.99,,2014-01-07 00:30:00,
2014-01-06 19:36:00,25.3,-99.9,28.33,North,-999,-999.0,-999.0,-999,-99.99,,,-99.99,,2014-01-07 00:36:00,
2014-01-06 19:42:00,25.0,-99.9,28.30,North,-999,-999.0,-999.0,-999,-99.99,,,-99.99,,2014-01-07 00:42:00,
2014-01-06 19:48:00,25.0,-99.9,28.33,North,-999,-999.0,-999.0,-999,-99.99,,,-99.99,,2014-01-07 00:48:00,
2014-01-06 19:54:00,25.0,-99.9,28.33,North,-999,-999.0,-999.0,-999,-99.99,,,-99.99,,2014-01-07 00:54:00,
2014-01-06 20:00:00,24.9,-99.9,28.33,North,-999,-999.0,-999.0,-999,-99.99,,,-99.99,,2014-01-07 01:00:00,
2014-01-06 20:06:00,24.6,-99.9,28.33,North,-999,-999.0,-999.0,-999,-99.99,,,-99.99,,2014-01-07 01:06:00,
2014-01-06 20:12:00,24.3,-99.9,28.33,North,-999,-999.0,-999.0,-999,-99.99,,,-99.99,,2014-01-07 01:12:00,
2014-01-06 20:20:00,24.1,-99.9,28.33,North,-999,-999.0,-999.0,-999,-99.99,,,-99.99,,2014-01-07 01:20:00,
2014-01-06 20:26:00,24.1,-99.9,28.33,North,-999,-999.0,-999.0,-999,-99.99,,,-99.99,,2014-01-07 01:26:00,
2014-01-06 20:32:00,23.8,-99.9,28.33,North,-999,-999.0,-999.0,-999,-99.99,,,-99.99,,2014-01-07 01:32:00,
2014-01-06 20:38:00,23.8,-99.9,28.33,North,-999,-999.0,-999.0,-999,-99.99,,,-99.99,,2014-01-07 01:38:00,
2014-01-06 20:44:00,23.7,-99.9,28.33,North,-999,-999.0,-999.0,-999,-99.99,,,-99.99,,2014-01-07 01:44:00,
2014-01-06 20:50:00,23.4,-99.9,28.33,North,-999,-999.0,-999.0,-999,-99.99,,,-99.99,,2014-01-07 01:50:00,
2014-01-06 20:56:00,23.5,-99.9,28.33,North,-999,-999.0,-999.0,-999,-99.99,,,-99.99,,2014-01-07 01:56:00,
2014-01-06 21:02:00,23.6,-99.9,28.33,North,-999,-999.0,-999.0,-999,-99.99,,,-99.99,,2014-01-07 02:02:00,
2014-01-06 21:08:00,23.4,-99.9,28.33,North,-999,-999.0,-999.0,-999,-99.99,,,-99.99,,2014-01-07 02:08:00,
2014-01-06 21:14:00,23.1,-99.9,28.33,North,-999,-999.0,-999.0,-999,-99.99,,,-99.99,,2014-01-07 02:14:00,
2014-01-06 21:20:00,23.2,-99.9,28.33,North,-999,-999.0,-999.0,-999,-99.99,,,-99.99,,2014-01-07 02:20:00,
2014-01-06 21:26:00,23.3,-99.9,28.33,North,-999,-999.0,-999.0,-999,-99.99,,,-99.99,,2014-01-07 02:26:00,
2014-01-06 21:32:00,23.2,-99.9,28.33,North,-999,-999.0,-999.0,-999,-99.99,,,-99.99,,2014-01-07 02:32:00,
2014-01-06 21:38:00,22.5,-99.9,28.33,North,-999,-999.0,-999.0,-999,-99.99,,,-99.99,,2014-01-07 02:38:00,
2014-01-06 21:44:00,22.0,-99.9,28.33,North,-999,-999.0,-999.0,-999,-99.99,,,-99.99,,2014-01-07 02:44:00,
2014-01-06 21:50:00,22.2,-99.9,28.33,North,-999,-999.0,-999.0,-999,-99.99,,,-99.99,,2014-01-07 02:50:00,
2014-01-06 21:56:00,22.0,-99.9,28.33,North,-999,-999.0,-999.0,-999,-99.99,,,-99.99,,2014-01-07 02:56:00,
2014-01-06 22:02:00,21.8,-99.9,28.33,North,-999,-999.0,-999.0,-999,-99.99,,,-99.99,,2014-01-07 03:02:00,
2014-01-06 22:08:00,21.6,-99.9,28.33,North,-999,-999.0,-999.0,-999,-99.99,,,-99.99,,2014-01-07 03:08:00,
2014-01-06 22:14:00,21.4,-99.9,28.33,North,-999,-999.0,-999.0,-999,-99.99,,,-99.99,,2014-01-07 03:14:00,
2014-01-06 22:20:00,21.4,-99.9,28.33,North,-999,-999.0,-999.0,-999,-99.99,,,-99.99,,2014-01-07 03:20:00,
2014-01-06 22:26:00,21.1,-99.9,28.33,North,-999,-999.0,-999.0,-999,-99.99,,,-99.99,,2014-01-07 03:26:00,
2014-01-06 22:32:00,21.1,-99.9,28.33,North,-999,-999.0,-999.0,-999,-99.99,,,-99.99,,2014-01-07 03:32:00,
2014-01-06 22:38:00,21.2,-99.9,28.33,North,-999,-999.0,-999.0,-999,-99.99,,,-99.99,,2014-01-07 03:38:00,
2014-01-06 22:44:00,21.1,-99.9,28.33,North,-999,-999.0,-999.0,-999,-99.99,,,-99.99,,2014-01-07 03:44:00,
2014-01-06 22:50:00,21.2,-99.9,28.33,North,-999,-999.0,-999.0,-999,-99.99,,,-99.99,,2014-01-07 03:50:00,
2014-01-06 22:56:00,21.3,-99.9,28.33,North,-999,-999.0,-999.0,-999,-99.99,,,-99.99,,2014-01-07 03:56:00,
2014-01-06 23:02:00,21.0,-99.9,28.36,North,-999,-999.0,-999.0,-999,-99.99,,,-99.99,,2014-01-07 04:02:00,
2014-01-06 23:08:00,20.7,-99.9,28.36,North,-999,-999.0,-999.0,-999,-99.99,,,-99.99,,2014-01-07 04:08:00,
2014-01-06 23:14:00,20.0,-99.9,28.33,North,-999,-999.0,-999.0,-999,-99.99,,,-99.99,,2014-01-07 04:14:00,
2014-01-06 23:20:00,19.5,-99.9,28.36,North,-999,-999.0,-999.0,-999,-99.99,,,-99.99,,2014-01-07 04:20:00,
2014-01-06 23:26:00,18.9,-99.9,28.36,North,-999,-999.0,-999.0,-999,-99.99,,,-99.99,,2014-01-07 04:26:00,
2014-01-06 23:32:00,18.2,-99.9,28.36,North,-999,-999.0,-999.0,-999,-99.99,,,-99.99,,2014-01-07 04:32:00,
2014-01-06 23:38:00,17.8,-99.9,28.36,North,-999,-999.0,-999.0,-999,-99.99,,,-99.99,,2014-01-07 04:38:00,
2014-01-06 23:44:00,17.7,-99.9,28.40,North,-999,-999.0,-999.0,-999,-99.99,,,-99.99,,2014-01-07 04:44:00,
2014-01-06 23:50:00,17.3,-99.9,28.40,North,-999,-999.0,-999.0,-999,-99.99,,,-99.99,,2014-01-07 04:50:00,
2014-01-06 23:56:00,16.7,-99.9,28.40,North,-999,-999.0,-999.0,-999,-99.99,,,-99.99,,2014-01-07 04:56:00,